(57732) = 2001 UE158

Discovered at Socorro on 2001-10-23 by LINEAR.

Orbit

Orbit type: Main Belt

Note: WebGL enabled browser required.

epoch2024-03-31.0
epoch JD2460400.5
perihelion date2020-06-03.29094
perihelion JD2459003.79094
argument of perihelion (°)243.99283
ascending node (°)73.51424
inclination (°)0.72491
eccentricity0.0222259
perihelion distance (AU)2.8492376
Tisserand w.r.t. Jupiter3.3
ΔV w.r.t. Earth (km/sec)10.5
semimajor axis (AU)2.9140039
mean anomaly (°)276.74170
mean daily motion (°/day)0.19813840
aphelion distance (AU)2.979
period (years)4.97
P-vector [x]0.73729168
P-vector [y]-0.61521677
P-vector [z]-0.27912238
Q-vector [x]0.67546562
Q-vector [y]0.67873101
Q-vector [z]0.28821939
absolute magnitude15.62
phase slope0.15
uncertainty0
referenceMPEC 2024-F50
observations used859
oppositions23
arc length (days)10913
first opposition used1994
last opposition used2024
residual rms (arc-secs)0.74
perturbers coarse indicatorM-v
perturbers precise indicator003Ek
first observation date used1994-05-03.0
last observation date used2024-03-19.0
computer nameMPCLINUX
JD of orbit computation2456877.867453
perihelion JD uncertainty (days)5.0543E-04
argument of perihelion uncertainty (°)2.9622E-04
ascending node uncertainty (°)2.7906E-04
inclination uncertainty (°)4.6071E-06
eccentricity uncertainty 3.2012E-08
perihelion distance uncertainty (AU)9.8198E-08
Minimum Orbit Intersection Distances (in AU)
for orbit epoch: 2460400.5, reference: E2024-F50
Mercury2.40499
Venus2.12183
Earth1.83524
Mars1.30762
Jupiter2.06697
Saturn6.08382
Uranus15.4673
Neptune26.9216

Observations

874 total observations over interval: 1994 05 03.27468 – 2024 03 19.639890
These data are available for download (format description).

Date (UT) J2000 RA J2000 Dec Magn Location Ref
1994 05 03.27468 15 07 43.24 -17 03 43.3 19.1 V 691 – Steward Observatory, Kitt Peak-Spacewatch MPS 49601
1994 05 03.30067 15 07 41.91 -17 03 38.7   691 – Steward Observatory, Kitt Peak-Spacewatch MPS 49601
1994 05 03.32815 15 07 40.51 -17 03 33.4   691 – Steward Observatory, Kitt Peak-Spacewatch MPS 49601
1996 11 08.36098 03 43 41.98 +19 23 04.5 19.6 V 691 – Steward Observatory, Kitt Peak-Spacewatch MPS 49601
1996 11 08.38329 03 43 40.80 +19 23 00.8 19.6 V 691 – Steward Observatory, Kitt Peak-Spacewatch MPS 49601
1996 11 08.40543 03 43 39.57 +19 22 56.9 19.4 V 691 – Steward Observatory, Kitt Peak-Spacewatch MPS 49601
1998 03 21.12687 09 17 27.86 +16 47 13.8 20.9 V 691 – Steward Observatory, Kitt Peak-Spacewatch MPS 44626
1998 03 21.14908 09 17 27.34 +16 47 15.0 21.0 V 691 – Steward Observatory, Kitt Peak-Spacewatch MPS 44626
1998 03 21.17152 09 17 26.89 +16 47 17.1 20.9 V 691 – Steward Observatory, Kitt Peak-Spacewatch MPS 44626
2000 08 07.38824 21 58 38.43 -13 28 31.0 20.3   608 – Haleakala-AMOS MPS 44626
2000 08 07.39881 21 58 37.96 -13 28 33.9 21.1   608 – Haleakala-AMOS MPS 44626
2000 08 07.41008 21 58 37.44 -13 28 36.3 20.2   608 – Haleakala-AMOS MPS 44626
2000 10 23.02528 21 28 56.24 -15 47 44.9 20.2 R I03 – European Southern Obs., La Silla--ASTROVIRTEL MPS 74112
2000 10 23.03676 21 28 56.51 -15 47 43.2 19.7 R I03 – European Southern Obs., La Silla--ASTROVIRTEL MPS 74112
2000 10 23.04796 21 28 56.76 -15 47 41.8 20.0 R I03 – European Southern Obs., La Silla--ASTROVIRTEL MPS 74112
2001 10 23.44061 04 07 00.33 +20 31 49.1 20.2   704 – Lincoln Laboratory ETS, New Mexico MPS 41243
2001 10 23.45709 04 06 59.78 +20 31 47.8 20.0   704 – Lincoln Laboratory ETS, New Mexico MPS 41243
2001 10 23.47356 04 06 59.24 +20 31 46.9 20.0   704 – Lincoln Laboratory ETS, New Mexico MPS 41243
2001 10 23.49004 04 06 58.65 +20 31 45.1 19.9   704 – Lincoln Laboratory ETS, New Mexico MPS 41243
2001 10 24.42515 04 06 26.83 +20 30 26.1 19.6   704 – Lincoln Laboratory ETS, New Mexico MPS 41243
2001 10 24.44154 04 06 26.30 +20 30 24.8 20.3   704 – Lincoln Laboratory ETS, New Mexico MPS 41243
2001 10 24.45792 04 06 25.65 +20 30 22.4 20.1   704 – Lincoln Laboratory ETS, New Mexico MPS 41243
2001 11 09.35728 03 54 49.75 +19 59 58.8 19.4   704 – Lincoln Laboratory ETS, New Mexico MPS 44626
2001 11 09.37164 03 54 49.01 +19 59 55.9 19.9   704 – Lincoln Laboratory ETS, New Mexico MPS 44626
2001 11 09.38601 03 54 48.24 +19 59 54.7 20.5   704 – Lincoln Laboratory ETS, New Mexico MPS 44626
2001 11 09.40039 03 54 47.53 +19 59 53.1 19.6   704 – Lincoln Laboratory ETS, New Mexico MPS 44626
2001 11 18.21865 03 46 59.50 +19 37 45.0 19.6 V 291 – LPL/Spacewatch II MPS 44626
2001 11 18.23995 03 46 58.27 +19 37 41.8 19.5 V 291 – LPL/Spacewatch II MPS 44626
2001 11 18.26119 03 46 57.09 +19 37 38.4 19.8 V 291 – LPL/Spacewatch II MPS 44626
2001 11 19.17562 03 46 07.50 +19 35 12.9 19.2 R 699 – Lowell Observatory-LONEOS MPS 44626
2001 11 19.19279 03 46 06.43 +19 35 11.3   699 – Lowell Observatory-LONEOS MPS 44626
2001 11 19.20998 03 46 05.61 +19 35 08.8   699 – Lowell Observatory-LONEOS MPS 44626
2001 11 19.22719 03 46 04.60 +19 35 05.5   699 – Lowell Observatory-LONEOS MPS 44626
2001 11 19.28995 03 46 01.01 +19 34 55.5 19.3   704 – Lincoln Laboratory ETS, New Mexico MPS 44626
2001 11 19.30462 03 46 00.17 +19 34 52.6 19.8   704 – Lincoln Laboratory ETS, New Mexico MPS 44626
2001 11 19.31929 03 45 59.39 +19 34 50.1 19.6   704 – Lincoln Laboratory ETS, New Mexico MPS 44626
2001 11 19.33396 03 45 58.50 +19 34 49.0 19.9   704 – Lincoln Laboratory ETS, New Mexico MPS 44626
2001 11 19.34863 03 45 57.66 +19 34 46.1 19.6   704 – Lincoln Laboratory ETS, New Mexico MPS 44626
2001 11 21.23357 03 44 15.21 +19 29 43.5 19.5   704 – Lincoln Laboratory ETS, New Mexico MPS 55095
2001 11 21.24822 03 44 14.50 +19 29 41.4 19.8   704 – Lincoln Laboratory ETS, New Mexico MPS 55095
2001 11 21.26289 03 44 13.64 +19 29 40.1 20.2   704 – Lincoln Laboratory ETS, New Mexico MPS 55095
2001 11 21.27756 03 44 12.78 +19 29 37.7 19.9   704 – Lincoln Laboratory ETS, New Mexico MPS 55095
2001 11 21.29223 03 44 11.93 +19 29 34.8 19.8   704 – Lincoln Laboratory ETS, New Mexico MPS 55095
2001 12 13.13367 03 26 28.54 +18 34 20.4 20.3   644 – Palomar Mountain/NEAT MPS 44626
2001 12 13.19722 03 26 25.97 +18 34 13.0 20.1   644 – Palomar Mountain/NEAT MPS 44626
2001 12 13.25970 03 26 23.46 +18 34 05.2 20.3   644 – Palomar Mountain/NEAT MPS 44626
2001 12 15.15325 03 25 12.29 +18 30 15.8 19.7   704 – Lincoln Laboratory ETS, New Mexico MPS 44626
2001 12 15.16833 03 25 11.69 +18 30 14.1 20.1   704 – Lincoln Laboratory ETS, New Mexico MPS 44626
2001 12 15.18648 03 25 11.02 +18 30 12.5 20.4   704 – Lincoln Laboratory ETS, New Mexico MPS 44626
2001 12 15.20319 03 25 10.33 +18 30 10.9 20.5   704 – Lincoln Laboratory ETS, New Mexico MPS 44626
2001 12 15.21830 03 25 09.77 +18 30 08.1 20.5   704 – Lincoln Laboratory ETS, New Mexico MPS 44626
2001 12 17.16859 03 24 01.45 +18 26 27.7 20.7 V 691 – Steward Observatory, Kitt Peak-Spacewatch MPS 44626
2001 12 17.19033 03 24 00.65 +18 26 24.7 21.8 V 691 – Steward Observatory, Kitt Peak-Spacewatch MPS 44626
2001 12 17.21198 03 23 59.89 +18 26 22.5 20.7 V 691 – Steward Observatory, Kitt Peak-Spacewatch MPS 44626
2001 12 18.15257 03 23 28.85 +18 24 42.7 20.0   704 – Lincoln Laboratory ETS, New Mexico MPS 44626
2001 12 18.16869 03 23 28.37 +18 24 42.2 20.9   704 – Lincoln Laboratory ETS, New Mexico MPS 44626
2001 12 18.18429 03 23 27.74 +18 24 40.2 20.4   704 – Lincoln Laboratory ETS, New Mexico MPS 44626
2001 12 18.19947 03 23 27.24 +18 24 37.4 20.2   704 – Lincoln Laboratory ETS, New Mexico MPS 44626
2001 12 18.21467 03 23 26.76 +18 24 37.7 20.4   704 – Lincoln Laboratory ETS, New Mexico MPS 44626
2001 12 19.14679 03 22 57.30 +18 23 00.7 19.9   704 – Lincoln Laboratory ETS, New Mexico MPS 44626
2001 12 19.18052 03 22 56.14 +18 22 57.8 19.9   704 – Lincoln Laboratory ETS, New Mexico MPS 44626
2001 12 19.19568 03 22 55.65 +18 22 57.8 20.6   704 – Lincoln Laboratory ETS, New Mexico MPS 44626
2001 12 19.21085 03 22 55.12 +18 22 55.2 20.3   704 – Lincoln Laboratory ETS, New Mexico MPS 44626
2003 01 28.402810 10 05 52.369 +12 45 43.31 20.12 V 645 – Apache Point-Sloan Digital Sky Survey MPS 81304
2003 01 28.406282 10 05 52.215 +12 45 44.13 21.01   645 – Apache Point-Sloan Digital Sky Survey MPS 81304
2003 01 30.56498 10 04 20.17 +12 54 36.5 21.4   608 – Haleakala-AMOS MPS 71572
2003 01 30.57590 10 04 19.64 +12 54 38.6 20.9   608 – Haleakala-AMOS MPS 71572
2003 01 30.58673 10 04 19.17 +12 54 41.7 21.1   608 – Haleakala-AMOS MPS 71572
2003 02 01.34202 10 03 01.49 +13 02 06.3 20.3 V 291 – LPL/Spacewatch II MPS 71572
2003 02 01.34768 10 03 01.22 +13 02 07.8 20.3 V 291 – LPL/Spacewatch II MPS 71572
2003 02 01.35320 10 03 00.98 +13 02 09.2 20.3 V 291 – LPL/Spacewatch II MPS 71572
2003 02 21.23920 09 46 44.15 +14 30 06.3 19.9   644 – Palomar Mountain/NEAT MPS 74112
2003 02 21.26163 09 46 43.00 +14 30 12.0 20.3   644 – Palomar Mountain/NEAT MPS 74112
2003 02 21.28266 09 46 41.88 +14 30 17.0 20.1   644 – Palomar Mountain/NEAT MPS 74112
2003 03 06.37922 09 36 38.79 +15 19 59.5 20.4   644 – Palomar Mountain/NEAT MPS 74112
2003 03 06.38974 09 36 38.37 +15 20 01.5 20.1   644 – Palomar Mountain/NEAT MPS 74112
2003 03 06.40013 09 36 37.87 +15 20 02.9 21.0   644 – Palomar Mountain/NEAT MPS 74112
2003 03 12.24861 09 32 56.35 +15 37 18.9 20.1   644 – Palomar Mountain/NEAT MPS 74112
2003 03 12.26967 09 32 55.56 +15 37 22.1 20.0   644 – Palomar Mountain/NEAT MPS 74112
2003 03 12.29067 09 32 54.81 +15 37 25.2 20.5   644 – Palomar Mountain/NEAT MPS 74112
2004 04 30.32311 15 32 45.68 -18 42 04.4 20.6 V 691 – Steward Observatory, Kitt Peak-Spacewatch MPS 106609
2004 04 30.35039 15 32 44.36 -18 42 00.4 20.0 V 691 – Steward Observatory, Kitt Peak-Spacewatch MPS 106609
2004 04 30.37773 15 32 43.02 -18 41 56.2 19.9 V 691 – Steward Observatory, Kitt Peak-Spacewatch MPS 106609
2004 05 09.27910 15 25 26.33 -18 17 34.3 20.3   644 – Palomar Mountain/NEAT MPS 107162
2004 05 09.30398 15 25 25.01 -18 17 29.7 19.4   644 – Palomar Mountain/NEAT MPS 107162
2004 05 09.35028 15 25 22.60 -18 17 21.9 19.4   644 – Palomar Mountain/NEAT MPS 107162
